Regional Weather Roundup
Issued by NWS

Home | Current Version | Previous Version | Graphics & Text | Print | Product List | Glossary On
Versions: 1 2 3 4 5 6 7 8 9 10 11 12 13 14 15 16 17 18 19 20 21 22 23 24 25 26 27 28 29 30 31 32 33 34 35 36 37 38 39 40 41 42 43 44 45 46 47 48 49 50
000
ASUS43 KDTX 251010
RWRMI
MICHIGAN HOURLY REGIONAL WEATHER ROUNDUP
NATIONAL WEATHER SERVICE DETROIT/PONTIAC MI
600 AM EDT WED MAY 25 2016

NOTE: "FAIR" INDICATES FEW OR NO CLOUDS BELOW 12,000 FEET WITH NO
SIGNIFICANT WEATHER AND/OR OBSTRUCTION TO VISIBILITY.

MIZ047>049-052>055-059>063-066>070-074>076-081>083-251100-
SOUTHEAST LOWER MICHIGAN

CITY           SKY/WX    TMP DP  RH WIND       PRES   REMARKS
ADRIAN         CLOUDY    61  46  57 W3        30.06S
ALMA           CLEAR     60  54  78 S6        30.02R
ANN ARBOR      CLOUDY    52  49  89 W3        30.05R
BAD AXE        PTCLDY    59  52  77 CALM      30.03R
CARO           PTCLDY    58  52  80 S3        30.00R
DETROIT CITY   CLOUDY    66  45  46 W7        30.05R
DETROIT        CLOUDY    62  47  57 SW6       30.06R
FLINT          MOCLDY    62  51  67 CALM      30.03R
GROSSE ILE     MOCLDY    64  48  55 CALM      30.04R
HILLSDALE      CLOUDY    65  47  52 CALM      30.07R
HOWELL         CLOUDY    64  50  59 CALM      30.05R

CITY           SKY/WX    TMP DP  RH WIND       PRES   REMARKS
JACKSON        PTCLDY    63  52  67 SW6       30.06R
LAMBERTVILLE   CLOUDY    63  49  60 CALM      30.06S
LANSING        PTCLDY    65  52  62 SW8       30.03S
LAPEER         FAIR      55  53  92 CALM      30.04R
MASON          PTCLDY    66  52  61 CALM      30.05R
MONROE         CLOUDY    60  49  68 SE5       30.05R
MT. CLEMENS    CLOUDY    66  48  52 SW6       30.03R
PONTIAC        MOCLDY    65  49  56 SW3       30.04R
PORT HOPE        N/A     60  53  77 S5        30.00R
PORT HURON     PTCLDY    57  54  88 CALM      30.04R
TRI CITIES     CLEAR     67  53  61 SW8       30.01R
MIDLAND          N/A     56  56 100 CALM      30.00R FOG
TROY           CLOUDY    65  48  52 SW5       30.07R
SAGINAW HB     CLEAR     64  50  59 SW10      30.00R
$$
MIZ043>046-050>051-056>058-064>065-071>073-077>080-251100-
SOUTHWEST LOWER MICHIGAN

CITY           SKY/WX    TMP DP  RH WIND       PRES   REMARKS
BATTLE CREEK   PTCLDY    62  53  72 SW7       30.05R
BENTON HARBOR  CLOUDY    67  56  67 S3        30.01S
BIG RAPIDS     FOG       57  56  97 CALM      30.00S VSB<1/4
COLDWATER      PTCLDY    62  52  71 CALM      30.06R
FREMONT        FAIR      58  55  90 CALM      30.00S
HOLLAND        CLOUDY    69  56  62 SW9       30.02R
GRAND RAPIDS   CLOUDY    67  54  63 S6        30.02R
IONIA          FAIR      65  53  64 SW7       30.02R
KALAMAZOO      PTCLDY    65  53  65 S6        30.05R
LUDINGTON      CLEAR     53  53 100 CALM      29.99F FOG
MARSHALL       PTCLDY    64  52  66 CALM      30.05R
MOUNT PLEASANT CLEAR     57  56  97 CALM      30.00R FOG
MUSKEGON       MOCLDY    65  54  67 S6        30.00R
SOUTH HAVEN    CLOUDY    68  57  69 S6        30.02R
$$
MIZ016>042-251100-
NORTHERN LOWER MICHIGAN

CITY           SKY/WX    TMP DP  RH WIND       PRES   REMARKS
ALPENA         CLEAR     52  49  89 CALM      30.02R
BEAVER ISLAND  FOG       54  54 100 CALM      30.03R VSB 3/4
BELLAIRE       FOG       52  51  97 CALM      30.01R VSB<1/4
CADILLAC       CLEAR     54  52  94 SW3       30.01R
CHARLEVOIX     CLOUDY    54  54 100 CALM      30.04R FOG
FRANKFORT      CLOUDY    51  50  95 CALM      30.00R
GAYLORD        CLEAR     51  49  92 CALM      30.02R
GRAYLING       CLEAR     48  47  97 CALM      30.01S FOG
HARBOR SPRINGS FOG       53  53  99 CALM      30.01S VSB 3/4
HOUGHTON LAKE  CLEAR     52  51  97 CALM      30.02R
MANISTEE       CLOUDY    50  46  87 CALM      30.00S
OSCODA         MOCLDY    56  49  77 N3        30.01R
PELLSTON       FOG       55  54  96 CALM      30.02R VSB 3/4
ROGERS CITY    FOG       55  53  93 W3        30.04R VSB 3/4
TRAVERSE CITY  CLEAR     52  50  93 CALM      30.00R
$$
MIZ007>008-015-251100-
EASTERN UPPER MICHIGAN

CITY           SKY/WX    TMP DP  RH WIND       PRES   REMARKS
KINROSS          N/A     54  54 100 CALM      30.02R
MACKINAC ISLAN FOG       55  55 100 NE3       30.02R VSB 1/4
NEWBERRY       FOG       52  51  97 CALM      30.03R VSB 1/4
S. S. MARIE    CLOUDY    56  54  93 CALM      30.02R
MUNISING         N/A     46  46 100 N6        30.06R
$$
MIZ004>006-011>014-085-251100-
CENTRAL UPPER MICHIGAN

CITY           SKY/WX    TMP DP  RH WIND       PRES   REMARKS
MANISTIQUE     CLOUDY    53  52  97 N8        30.03R FOG
ESCANABA       CLOUDY    52  50  93 N3        30.04R
MENOMINEE      CLOUDY    57  56  96 NE8       30.03R FOG
SAWYER-GWINN   FOG       47  47  97 N6        30.07R VSB 1/2
$$
MIZ001>003-009>011-084-251100-
WESTERN UPPER MICHIGAN

CITY           SKY/WX    TMP DP  RH WIND       PRES   REMARKS
IRON MOUNTAIN  CLOUDY    54  52  93 CALM      30.04R
HOUGHTON       CLOUDY    48  46  93 E7        30.06R
COPPER HARBOR    N/A     46  45  96 CALM      30.08R
IRONWOOD       CLOUDY    54  54 100 CALM      30.00S VSB 1/2
$$

ABBREVIATIONS USED IN REMARKS
   TC - TEMPERATURE IN CELSIUS
  WCI - WIND CHILL INDEX
   HX - HEAT INDEX
  VSB - VISIBILITY





USA.gov is the U.S. government's official web portal to all federal, state and local government web resources and services.